HUMSAT-D (39433 NORAD) Tracking and Keplerian Element Data

This shows tracking and keplerian element data for the satellite.

Feedback or suggestion? Click here.




ElementValue
Catalog39433
NameHUMSAT-D
Epoch Orbit23026
Epoch Day46.36720269
Epoch Year2018
RAAN106.9122
Inclination97.6212
Eccentricity0.003234
Argument of Perigee126.872
Mean Anonmoly233.5471
Mean Motion14.91746863
Decay Rate6.25E-06
L11 39433U 13066T 18046.36720269 .00000625 00000-0 66902-4 0 9992
L22 39433 97.6212 106.9122 0032340 126.8720 233.5471 14.91746863230267



Live tracking and technical data element details for HUMSAT-D (NORAD 39433). HUMSAT-D can be tracked NOW for your location showing map with azimuth and elevation plus other details from your city location.







IsCatalogInMostPopularTable: catalog: 39433, numindb: 470
Update: records affected: 1



GetName: 39433 HUMSAT-D

Hit Count: updated at: Thu, 23 Jan 2025 16:30:30 GMT